Skip Page Navigation
NASA JPL Caltech
NASA Logo - Jet Propulsion Laboratory + View the NASA Portal
+ Center for Near-Earth Object Studies
JPL Home Earth Solar System Stars & Galaxies Technology
JPL Solar System Dynamics
BODIES ORBITS EPHEMERIDES TOOLS PHYSICAL DATA DISCOVERY FAQ SITE MAP
JPL Small-Body Database Browser
Search: [ help ]  
(2020 BR10)
Classification: Apollo [NEO]          SPK-ID: 3989244
Ephemeris | Orbit Diagram | Orbital Elements | Mission Design | Physical Parameters | Close-Approach Data ]

[ show orbit diagram ]
Orbital Elements at Epoch 2459000.5 (2020-May-31.0) TDB
Reference: JPL 13 (heliocentric ecliptic J2000)
 Element Value Uncertainty (1-sigma)   Units 
e .5953529168135401 6.6763e-05  
a 1.870360180931199 0.00026055 au
q .7568357917219092 1.9446e-05 au
i 7.409682395093292 0.00065464 deg
node 156.4417701485426 0.00014331 deg
peri 62.32486490176696 0.00043225 deg
M 21.20490207156373 0.003879 deg
tp 2458945.467395207613
(2020-Apr-05.96739521)
0.0014325 TDB
period 934.2998924681409
2.56
0.19523
0.0005345
d
yr
n .385315253594847 8.0514e-05 deg/d
Q 2.983884570140489 0.00041567 au
  Orbit Determination Parameters
   # obs. used (total)      62  
   data-arc span      39 days  
   first obs. used      2020-01-17  
   last obs. used      2020-02-25  
   planetary ephem.      DE431  
   SB-pert. ephem.      SB431-N16  
   condition code      6  
   norm. resid. RMS      .40487  
   source      ORB  
   producer      Otto Matic  
   solution date      2020-Apr-28 07:10:33  

Additional Information
 Earth MOID = .0125245 au 
 Jupiter MOID = 2.02356 au 
 T_jup = 3.737 
[ hide covariance matrix ]
Orbital Elements at Epoch 2458877.5 (2020-Jan-29.0) TDB
Reference: JPL 13 (heliocentric ecliptic J2000)
 Element Value Uncertainty (1-sigma)   Units 
e .5951059089595991 6.6799e-05  
q .7566250545617754 1.9392e-05 au
tp 2458945.494721797904
(2020-Apr-05.99472180)
0.0014428 TDB
node 156.4482848090077 0.0001451 deg
peri 62.36817850669645 0.0004183 deg
i 7.407501461889094 0.0006552 deg
  Orbit Determination Parameters
   # obs. used (total)      62  
   data-arc span      39 days  
   first obs. used      2020-01-17  
   last obs. used      2020-02-25  
   planetary ephem.      DE431  
   SB-pert. ephem.      SB431-N16  
   condition code      6  
   norm. resid. RMS      .40487  
   source      ORB  
   producer      Otto Matic  
   solution date      2020-Apr-28 07:10:33  

Additional Information
 Jupiter MOID = 2.02356 au 
 T_jup = 3.737 
Orbit Covariance (6×6)
  e q tp node peri i
e 4.462100283256054E-9 -1.295092647814656E-9 -9.636060714977891E-8 -9.425156124563059E-9 2.758381376607603E-8 4.375803892301752E-8
q -1.295092647814656E-9 3.760667460979544E-10 2.795726905510981E-8 2.733487465999123E-9 -8.030308820541006E-9 -1.270105199181543E-8
tp -9.636060714977891E-8 2.795726905510981E-8 2.081660176900286E-6 2.037236757442606E-7 -5.942057033976445E-7 -9.449286680088847E-7
node -9.425156124563059E-9 2.733487465999123E-9 2.037236757442606E-7 2.105268229433719E-8 -5.905566938111691E-8 -9.2769191371737E-8
peri 2.758381376607603E-8 -8.030308820541006E-9 -5.942057033976445E-7 -5.905566938111691E-8 1.749740439324148E-7 2.709369468422031E-7
i 4.375803892301752E-8 -1.270105199181543E-8 -9.449286680088847E-7 -9.2769191371737E-8 2.709369468422031E-7 4.292902861792186E-7

Ephemeris | Orbit Diagram | Orbital Elements | Mission Design | Physical Parameters | Close-Approach Data ]

Physical Parameter Table
Parameter Symbol Value Units Sigma Reference Notes
absolute magnitude H 22.765   .32084 13 autocmod 2.8

[ show close-approach data ]
Ephemeris | Orbit Diagram | Orbital Elements | Mission Design | Physical Parameters | Close-Approach Data ]
ABOUT SSD CREDITS/AWARDS PRIVACY/COPYRIGHT GLOSSARY LINKS
FirstGov 2020-Aug-13 03:05 UT
(server date/time)  
NASA Home Page
Site Manager:   Ryan S. Park
Webmaster  Alan B. Chamberlin